Date,TemperatureHighF,TemperatureAvgF,TemperatureLowF,DewpointHighF,DewpointAvgF,DewpointLowF,HumidityHigh,HumidityAvg,HumidityLow,PressureMaxIn,PressureMinIn,WindSpeedMaxMPH,WindSpeedAvgMPH,GustSpeedMaxMPH,PrecipitationSumIn
2013-1-1,26,12,-2,7,0,-10,77,60,32,30.31,30.09,0,0,0,0.00
2013-1-2,35,24,12,26,16,4,74,69,61,30.22,30.02,0,0,0,0.00
2013-1-3,31,23,16,24,14,7,75,68,46,30.41,30.21,0,0,0,0.00
2013-1-4,42,23,15,13,11,8,75,60,29,30.29,30.11,0,0,0,0.00
2013-1-5,34,24,18,19,13,8,75,63,45,30.21,29.98,0,0,0,0.00
2013-1-6,37,25,11,20,12,4,75,60,37,30.31,30.09,0,0,0,0.00
2013-1-7,43,32,18,24,20,12,80,60,46,30.09,29.95,0,0,0,0.00
2013-1-8,40,28,13,27,20,8,87,72,55,30.10,29.82,0,0,0,0.00
2013-1-9,58,38,27,29,24,18,75,58,22,30.42,30.10,0,0,0,0.00
2013-1-10,42,39,36,36,27,14,99,64,33,30.30,29.68,0,0,1,0.12
2013-1-11,61,41,27,49,38,19,99,91,63,30.02,29.38,0,0,2,0.00
2013-1-12,27,19,10,18,5,0,69,56,40,30.44,30.03,0,0,0,0.00
2013-1-13,25,13,5,2,-1,-4,70,54,30,30.62,30.42,0,0,0,0.00
2013-1-14,33,19,8,9,4,0,71,54,29,30.74,30.62,0,0,0,0.00
2013-1-15,37,25,14,16,10,5,68,55,33,30.63,30.31,0,0,0,0.00
2013-1-16,57,37,23,29,22,13,82,58,27,30.54,30.19,0,0,0,0.00
2013-1-17,34,28,20,31,24,15,99,86,76,30.75,30.54,0,0,0,0.00
2013-1-18,51,40,32,32,27,24,99,60,40,30.56,30.16,0,0,0,0.00
2013-1-19,56,41,19,27,22,4,70,50,29,30.64,30.14,0,0,0,0.00
2013-1-20,19,15,12,8,4,0,70,59,46,30.72,30.62,0,0,0,0.00
2013-1-21,17,9,2,3,-9,-17,58,44,21,30.75,30.64,0,0,0,0.00
2013-1-22,25,13,8,5,0,-9,73,57,39,30.68,30.53,0,0,0,0.00
2013-1-23,32,19,6,14,6,-7,68,57,39,30.83,30.42,0,0,0,0.00
2013-1-24,18,10,1,0,-7,-13,56,45,37,30.86,30.46,0,0,0,0.00
2013-1-25,52,30,15,21,12,-1,73,49,24,30.55,30.38,0,0,0,0.00
2013-1-26,51,32,14,19,12,3,74,46,21,30.56,30.29,0,0,0,0.00
2013-1-27,41,38,36,39,33,17,99,84,38,30.29,30.00,0,0,0,0.11
2013-1-28,42,38,34,42,38,33,99,99,99,30.16,29.85,0,0,0,0.01
2013-1-29,39,34,31,39,32,26,99,93,79,30.00,29.85,0,0,0,0.00
2013-1-30,31,22,11,26,13,1,95,68,44,30.24,29.94,0,0,0,0.01
2013-1-31,12,6,-2,1,-9,-14,65,50,32,30.71,30.24,0,0,0,0.00
2013-2-1,29,14,-5,18,1,-14,67,56,37,30.71,30.30,0,0,0,0.00
2013-2-2,39,30,23,29,20,14,75,64,52,30.49,30.33,0,0,0,0.00
2013-2-3,45,34,20,27,19,10,68,55,35,30.50,30.06,0,0,0,0.00
2013-2-4,40,26,22,27,18,14,82,70,59,30.33,30.05,0,0,0,0.00
2013-2-5,53,38,26,29,22,16,82,59,24,30.37,30.09,0,0,0,0.00
2013-2-6,51,40,32,32,27,24,75,61,43,30.37,30.13,0,0,0,0.00
2013-2-7,41,33,28,33,26,20,84,73,67,30.54,30.19,0,0,0,0.00
2013-2-8,40,29,25,23,21,19,80,72,47,30.63,30.42,0,0,0,0.00
2013-2-9,53,39,27,32,28,22,84,67,42,30.44,29.98,0,0,0,0.00
2013-2-10,47,37,30,42,31,19,97,78,62,30.08,29.56,0,0,0,0.05
2013-2-11,34,29,20,22,18,13,77,63,52,30.45,30.08,0,0,0,0.00
2013-2-12,54,35,20,21,14,-5,80,51,10,30.45,30.18,0,0,0,0.00
2013-2-13,57,40,25,27,20,8,74,48,14,30.20,30.00,0,0,0,0.00
2013-2-14,46,36,20,28,22,10,86,58,30,30.58,30.08,0,0,0,0.00
2013-2-15,36,23,14,21,11,4,85,62,27,30.64,30.58,0,0,0,0.00
2013-2-16,39,23,7,22,13,1,81,66,47,30.62,30.30,0,0,0,0.00
2013-2-17,55,39,19,28,21,13,80,53,30,30.31,29.84,0,0,0,0.00
2013-2-18,46,31,18,28,18,6,84,60,37,30.37,29.85,0,0,0,0.00
2013-2-19,28,16,7,6,-6,-22,61,42,10,30.68,30.37,0,0,0,0.00
2013-2-20,25,15,2,-2,-6,-8,67,42,22,30.69,30.50,0,0,0,0.00
2013-2-21,27,22,20,18,9,-2,85,60,32,30.54,30.16,0,0,0,0.00
2013-2-22,30,20,13,16,11,5,84,66,41,30.32,30.15,0,0,0,0.01
2013-2-23,41,24,6,21,12,-1,76,61,37,30.30,30.11,0,0,0,0.00
2013-2-24,43,29,17,25,20,12,81,69,42,30.38,30.18,0,0,0,0.00
2013-2-25,35,27,23,24,22,19,89,79,62,30.40,30.23,0,0,0,0.00
2013-2-26,33,28,24,26,23,20,92,84,73,30.24,30.09,0,0,0,0.00
2013-2-27,40,30,24,23,19,15,79,64,41,30.41,30.19,0,0,0,0.00
2013-2-28,37,28,25,20,18,15,73,67,50,30.53,30.40,0,0,0,0.00
2013-3-1,31,26,23,18,14,12,71,62,47,30.66,30.51,0,0,0,0.00
2013-3-2,42,28,17,18,13,8,70,54,30,30.64,30.38,0,0,0,0.00
2013-3-3,41,33,25,24,20,17,73,61,45,30.38,30.01,0,0,0,0.00
2013-3-4,47,35,30,28,23,15,85,61,39,30.33,29.97,0,0,0,0.00
2013-3-5,32,27,23,18,14,11,65,58,50,30.68,30.32,0,0,0,0.02
2013-3-6,47,30,21,20,15,11,72,54,26,30.72,30.54,0,0,0,0.00
2013-3-7,53,35,23,24,20,16,75,56,27,30.57,30.38,0,0,0,0.00
2013-3-8,56,41,25,37,27,18,83,60,37,30.48,30.20,0,0,0,0.13
2013-3-9,52,44,34,49,41,32,95,88,81,30.20,29.86,0,0,0,0.50
2013-3-10,34,28,22,32,27,21,99,97,92,30.25,30.01,0,0,0,0.01
2013-3-11,39,26,20,21,16,11,96,67,31,30.29,30.17,0,0,0,0.00
2013-3-12,36,30,24,20,17,13,72,60,48,30.62,30.30,0,0,0,0.00
2013-3-13,45,29,16,17,12,8,73,52,26,30.74,30.52,0,0,0,0.00
2013-3-14,64,44,32,36,26,16,81,51,32,30.52,30.34,0,0,0,0.00
2013-3-15,61,45,35,42,35,29,89,69,41,30.34,30.03,0,0,0,0.00
2013-3-16,37,32,28,34,24,19,90,72,57,30.48,30.16,0,0,0,0.00
2013-3-17,48,34,22,32,20,14,87,59,31,30.47,30.04,0,0,0,0.01
2013-3-18,38,33,26,33,16,3,92,53,23,30.35,29.98,0,0,0,0.07
2013-3-19,55,32,18,23,11,1,65,46,13,30.64,30.35,0,0,0,0.00
2013-3-20,39,24,14,9,1,-9,60,39,13,30.70,30.41,0,0,0,0.00
2013-3-21,32,26,19,17,8,3,64,49,29,30.41,30.22,0,0,0,0.00
2013-3-22,36,30,24,16,14,11,64,51,38,30.34,30.27,0,0,0,0.00
2013-3-23,39,31,28,27,22,15,92,69,38,30.42,30.32,0,0,0,0.00
2013-3-24,32,27,25,27,19,14,91,71,50,30.39,30.33,0,0,0,0.00
2013-3-25,32,27,24,22,18,14,84,67,51,30.63,30.38,0,0,0,0.00
2013-3-26,46,30,18,17,13,8,72,51,23,30.66,30.52,0,0,0,0.00
2013-3-27,57,40,24,28,20,14,74,47,22,30.56,30.46,0,0,0,0.00
2013-3-28,64,45,25,32,23,15,83,49,15,30.55,30.43,0,0,0,0.00
2013-3-29,74,53,28,36,23,9,82,41,10,30.52,30.32,0,0,0,0.01
2013-3-30,69,57,46,51,39,26,87,56,23,30.35,30.19,0,0,0,0.02
2013-3-31,59,47,30,37,26,6,93,53,12,30.46,30.24,0,0,0,0.00
2013-4-1,44,30,19,28,14,2,93,55,18,30.65,30.46,0,0,0,0.01
2013-4-2,60,40,23,23,11,0,67,37,10,30.62,30.52,0,0,0,0.00
2013-4-3,61,44,29,19,15,3,61,35,10,30.64,30.48,0,0,0,0.00
2013-4-4,66,49,32,30,22,7,70,39,11,30.49,30.35,0,0,0,0.04
2013-4-5,69,52,32,30,25,20,70,39,18,30.48,30.00,0,0,0,0.00
2013-4-6,74,60,50,40,32,15,59,39,11,30.09,29.89,0,0,0,0.00
2013-4-7,73,53,36,47,38,27,82,59,18,30.17,29.93,0,0,0,0.01
2013-4-8,72,60,47,56,51,45,98,75,53,30.03,29.91,0,0,0,0.38
2013-4-9,58,43,33,56,42,32,97,95,91,30.31,29.90,0,0,3,0.90
2013-4-10,36,35,32,36,34,32,99,98,95,30.30,30.11,0,0,0,0.15
2013-4-11,38,33,30,33,30,26,99,87,74,30.10,29.93,0,0,0,0.11
2013-4-12,41,35,32,29,26,22,84,70,52,30.31,30.02,0,0,0,0.00
2013-4-13,55,42,29,34,28,21,76,58,40,30.33,29.98,0,0,0,0.00
2013-4-14,69,51,42,50,41,33,87,69,47,30.01,29.61,0,0,0,0.38
2013-4-15,53,40,33,34,26,19,71,56,32,30.39,29.96,0,0,0,0.00
2013-4-16,56,43,34,31,26,18,73,54,23,30.55,30.38,0,0,0,0.00
2013-4-17,46,41,36,42,36,30,99,83,54,30.48,30.02,0,0,1,0.45
2013-4-18,37,34,32,35,31,26,98,91,71,30.17,30.01,0,0,0,0.33
2013-4-19,48,43,30,21,16,10,59,35,22,30.40,30.22,0,0,0,0.00
2013-4-20,36,26,22,22,17,15,77,68,55,30.54,30.40,0,0,0,0.00
2013-4-21,69,54,40,48,33,23,88,48,21,30.43,30.28,0,0,0,0.14
2013-4-22,48,40,32,47,38,27,99,94,81,30.53,30.27,0,0,0,1.02
2013-4-23,42,33,27,27,21,16,81,61,42,30.56,30.45,0,0,0,0.00
2013-4-24,61,42,27,32,19,2,70,48,10,30.50,30.32,0,0,0,0.00
2013-4-25,73,53,29,33,22,10,78,39,10,30.55,30.28,0,0,0,0.00
2013-4-26,80,62,52,45,35,26,75,39,14,30.49,30.29,0,0,0,0.00
2013-4-27,77,58,44,50,45,41,97,66,29,30.50,30.23,0,0,0,0.00
2013-4-28,86,67,49,50,44,31,86,50,14,30.25,29.97,0,0,0,0.00
2013-4-29,90,70,53,54,45,25,74,47,11,30.09,29.79,0,0,0,0.00
2013-4-30,76,69,55,53,43,31,62,39,27,30.22,29.76,0,0,0,0.01
2013-5-1,55,40,32,42,36,32,99,87,59,30.71,30.22,0,0,0,0.37
2013-5-2,52,41,32,34,29,24,99,66,36,30.84,30.69,0,0,0,0.26
2013-5-3,49,40,32,30,26,24,74,58,40,30.69,30.35,0,0,0,0.00
2013-5-4,43,39,35,39,35,28,94,86,70,30.45,30.30,0,0,0,0.07
2013-5-5,56,48,41,46,42,39,93,82,70,30.47,30.40,0,0,0,0.01
2013-5-6,76,57,47,50,46,43,88,70,36,30.45,30.32,0,0,0,0.07
2013-5-7,78,61,44,56,49,42,95,69,31,30.38,30.25,0,0,0,0.06
2013-5-8,69,61,55,59,57,55,99,87,67,30.27,30.20,0,0,2,0.15
2013-5-9,74,58,53,60,56,52,99,93,54,30.33,30.17,0,0,0,0.41
2013-5-10,74,59,48,53,46,37,96,68,26,30.41,30.30,0,0,0,0.04
2013-5-11,62,55,45,44,22,2,73,33,10,30.56,30.32,0,0,0,0.00
2013-5-12,75,53,31,31,16,3,67,31,10,30.59,30.40,0,0,0,0.00
2013-5-13,82,62,49,49,34,20,57,37,16,30.41,30.11,0,0,0,0.00
2013-5-14,103,83,64,58,43,22,71,33,10,30.13,29.91,0,0,0,0.11
2013-5-15,89,74,58,43,28,16,50,21,10,30.24,30.08,0,0,0,0.00
2013-5-16,88,71,55,63,51,38,78,52,28,30.18,30.05,0,0,0,0.04
2013-5-17,90,78,65,62,57,52,79,52,29,30.19,30.10,0,0,0,0.00
2013-5-18,90,77,62,64,59,56,83,56,34,30.20,29.99,0,0,0,0.02
2013-5-19,79,67,60,67,62,53,99,84,58,30.09,29.81,0,0,0,0.80
2013-5-20,78,66,58,57,53,47,93,65,36,29.95,29.82,0,0,0,0.00
2013-5-21,64,59,54,54,49,44,87,69,51,30.03,29.89,0,0,0,0.04
2013-5-22,63,56,51,52,48,46,92,77,57,30.29,30.02,0,0,0,0.01
2013-5-23,77,62,51,51,42,29,95,57,18,30.55,30.29,0,0,0,0.06
2013-5-24,76,65,51,48,43,38,66,46,30,30.59,30.33,0,0,0,0.00
2013-5-25,79,65,56,65,57,42,96,77,43,30.41,30.27,0,0,6,0.96
2013-5-26,78,66,58,66,61,58,99,87,64,30.30,30.13,0,0,0,0.02
2013-5-27,81,68,59,65,62,58,99,83,51,30.23,29.93,0,0,0,1.37
2013-5-28,83,72,61,65,62,59,99,73,45,30.06,29.93,0,0,0,0.00
2013-5-29,80,70,63,69,64,60,99,82,65,30.02,29.84,0,0,1,0.72
2013-5-30,80,68,63,64,60,52,99,78,53,29.92,29.80,0,0,0,0.15
2013-5-31,82,74,62,52,44,31,71,36,16,30.01,29.91,0,0,0,0.01
2013-6-1,63,58,53,54,49,45,82,70,54,30.33,29.95,0,0,0,0.00
2013-6-2,78,60,50,48,42,30,83,54,18,30.42,30.30,0,0,0,0.00
2013-6-3,78,64,47,51,45,40,85,54,28,30.34,30.13,0,0,0,0.00
2013-6-4,78,66,58,64,58,51,94,77,57,30.30,30.14,0,0,0,0.39
2013-6-5,77,66,57,63,50,40,99,60,29,30.36,30.26,0,0,0,0.00
2013-6-6,76,65,56,55,48,42,79,57,30,30.32,30.25,0,0,0,0.01
2013-6-7,82,65,49,52,47,42,88,56,26,30.35,30.19,0,0,0,0.00
2013-6-8,67,62,58,63,55,47,99,79,57,30.19,29.96,0,0,0,0.76
2013-6-9,69,64,61,63,58,56,99,82,68,30.14,29.99,0,0,0,0.31
2013-6-10,85,68,57,65,60,55,99,77,43,30.21,30.07,0,0,0,0.00
2013-6-11,92,77,64,72,67,62,95,72,45,30.15,30.00,0,0,0,0.00
2013-6-12,89,78,63,70,62,51,83,61,37,30.34,29.96,0,0,0,0.00
2013-6-13,84,70,57,61,54,46,83,59,28,30.42,30.28,0,0,0,0.08
2013-6-14,88,73,61,68,62,56,90,71,50,30.34,30.06,0,0,0,0.20
2013-6-15,91,75,64,70,65,61,99,74,38,30.26,30.09,0,0,0,0.13
2013-6-16,94,78,64,71,60,43,99,61,19,30.30,30.22,0,0,0,0.00
2013-6-17,93,78,60,64,54,46,87,49,21,30.33,30.25,0,0,0,0.00
2013-6-18,92,73,63,67,58,52,94,63,26,30.38,30.27,0,0,0,0.27
2013-6-19,90,77,62,66,61,56,86,59,38,30.31,30.19,0,0,0,0.00
2013-6-20,94,82,69,71,68,62,83,62,45,30.26,30.09,0,0,0,0.02
2013-6-21,96,87,79,74,70,68,73,59,41,30.16,30.05,0,0,0,0.00
2013-6-22,94,82,68,71,65,57,84,57,39,30.33,30.08,0,0,0,0.08
2013-6-23,88,76,66,69,66,62,94,71,50,30.21,30.01,0,0,0,0.32
2013-6-24,88,78,69,72,69,62,95,77,54,30.23,30.00,0,0,0,0.06
2013-6-25,90,81,71,75,70,65,92,70,47,30.11,29.98,5,0,10,0.11
2013-6-26,102,84,71,75,65,49,96,59,21,30.19,29.97,0,0,0,0.00
2013-6-27,94,76,68,73,66,60,93,73,37,30.34,30.18,0,0,5,0.31
2013-6-28,89,80,71,64,56,47,78,46,26,30.30,30.20,0,0,0,0.01
2013-6-29,82,74,65,58,54,48,67,50,34,30.26,30.19,0,0,1,0.00
2013-6-30,83,70,58,57,50,42,83,55,24,30.42,30.26,0,0,2,0.00
2013-7-1,87,72,52,56,49,36,84,50,16,30.50,30.41,0,0,0,0.18
2013-7-2,91,71,56,60,54,47,85,59,22,30.49,30.36,0,0,0,0.00
2013-7-3,93,74,56,63,54,48,92,56,23,30.38,30.25,0,0,0,0.27
2013-7-4,90,77,64,60,54,47,69,46,23,30.29,30.18,0,0,0,0.00
2013-7-5,90,80,69,64,59,52,63,50,36,30.21,30.13,0,0,0,0.00
2013-7-6,92,81,73,66,62,58,64,53,37,30.17,30.09,0,0,0,0.19
2013-7-7,98,84,75,72,65,59,77,55,36,30.22,30.11,0,0,0,0.00
2013-7-8,95,82,71,74,71,68,91,70,43,30.27,30.19,0,0,0,0.00
2013-7-9,101,89,73,76,72,68,96,61,37,30.27,30.16,0,0,2,0.25
2013-7-10,100,100,100,72,72,72,40,40,40,30.37,30.27,0,0,0,0.25
2013-7-11,90,76,61,64,60,56,98,61,34,29.70,29.55,0,0,0,0.00
2013-7-12,93,81,70,69,63,57,66,55,44,29.59,29.49,0,0,0,0.04
2013-7-13,94,83,75,73,66,60,68,56,46,29.56,29.50,0,0,0,0.00
2013-7-14,92,80,70,66,59,54,71,52,31,29.75,29.58,0,0,0,0.00
2013-7-15,92,79,62,68,64,59,92,63,41,29.80,29.70,0,0,0,0.00
2013-7-16,96,87,70,68,64,61,87,50,33,29.85,29.76,0,0,0,0.00
2013-7-17,98,85,70,74,68,64,92,59,35,29.89,29.75,0,0,0,0.00
2013-7-18,95,86,75,71,67,63,77,55,35,29.76,29.51,0,0,0,0.00
2013-7-19,100,85,73,72,62,52,69,49,22,29.54,29.47,0,0,0,0.00
2013-7-20,93,77,61,70,61,54,94,61,27,29.61,29.45,0,0,0,0.01
2013-7-21,96,80,70,71,67,60,87,64,38,29.52,29.36,0,0,0,0.00
2013-7-22,100,83,70,74,69,61,95,66,34,29.47,29.33,0,0,0,0.46
2013-7-23,87,73,65,64,60,55,90,66,35,29.60,29.45,0,0,0,0.02
2013-7-24,90,74,57,61,58,54,90,61,32,29.69,29.59,0,0,0,0.01
2013-7-25,88,75,69,68,63,58,94,67,41,29.64,29.55,0,0,0,0.07
2013-7-26,78,70,58,68,57,49,99,67,37,29.71,29.57,0,0,6,0.09
2013-7-27,79,64,52,51,46,36,85,56,22,29.73,29.64,8,0,12,0.00
2013-7-28,84,65,47,56,43,34,85,51,17,29.71,29.64,7,1,11,0.00
2013-7-29,69,63,54,64,55,46,97,76,60,29.70,29.63,8,3,15,0.04
2013-7-30,78,70,64,68,64,63,99,85,62,29.74,29.65,8,2,11,0.00
2013-7-31,92,76,61,73,63,58,99,69,32,29.78,29.67,7,1,10,0.00
2013-8-1,90,74,60,67,62,53,98,71,32,29.73,29.49,11,3,29,0.25
2013-8-2,90,77,64,70,63,58,97,65,38,29.67,29.52,11,3,23,0.00
2013-8-3,83,71,62,63,57,51,93,63,35,29.83,29.67,8,2,12,0.00
2013-8-4,86,71,56,65,58,53,96,67,41,29.83,29.64,11,2,20,0.00
2013-8-5,92,76,69,73,70,64,96,81,53,29.66,29.47,9,2,17,0.15
2013-8-6,78,73,64,73,71,63,99,95,84,29.57,29.46,24,1,48,1.12
2013-8-7,88,76,67,71,64,58,93,68,37,29.64,29.47,10,2,13,0.00
2013-8-8,85,70,61,65,62,58,95,76,46,29.67,29.59,4,1,10,0.00
2013-8-9,85,72,62,70,61,52,99,71,33,29.78,29.65,8,2,13,0.00
2013-8-10,87,72,58,67,58,55,98,65,36,29.83,29.70,8,2,14,0.00
2013-8-11,89,76,66,69,64,58,92,67,44,29.74,29.61,10,4,16,0.08
2013-8-12,88,75,65,69,64,57,99,73,36,29.73,29.60,9,2,14,0.04
2013-8-13,86,71,60,63,58,47,94,68,32,29.82,29.72,7,1,10,0.00
2013-8-14,78,66,54,62,57,53,95,76,48,29.83,29.71,6,1,13,0.22
2013-8-15,69,63,59,62,59,56,99,88,71,29.75,29.67,10,4,18,1.20
2013-8-16,78,68,61,60,58,54,95,73,47,29.81,29.74,9,3,16,0.00
2013-8-17,84,70,57,62,56,51,95,64,34,29.83,29.74,10,2,15,0.00
2013-8-18,85,71,54,60,55,51,91,61,34,29.78,29.67,9,2,17,0.00
2013-8-19,90,78,68,67,63,59,76,62,43,29.70,29.55,12,4,21,0.00
2013-8-20,93,81,72,69,66,65,79,63,42,29.58,29.52,14,6,27,0.00
2013-8-21,96,85,73,71,68,65,77,57,41,29.60,29.55,15,6,24,0.00
2013-8-22,95,95,95,71,71,71,46,46,46,29.56,29.56,2,2,4,0.00
2013-8-23,92,80,67,72,68,63,99,71,38,29.71,29.60,9,3,15,0.00
2013-8-24,95,86,77,70,69,65,72,58,42,29.69,29.61,9,4,20,0.00
2013-8-25,99,86,76,71,68,64,76,58,34,29.73,29.64,13,6,25,0.00
2013-8-26,100,86,76,70,68,66,77,55,35,29.70,29.55,13,6,24,0.00
2013-8-27,99,86,77,69,66,61,66,53,29,29.56,29.51,14,7,25,0.00
2013-8-28,102,84,72,69,62,47,67,50,17,29.63,29.55,11,5,21,0.00
2013-8-29,101,86,67,73,68,62,91,58,29,29.64,29.52,8,3,17,0.00
2013-8-30,97,85,74,76,71,66,80,64,42,29.54,29.47,10,4,14,0.00
2013-8-31,98,82,70,76,70,63,99,72,33,29.55,29.40,5,1,9,0.00
2013-9-1,86,76,67,71,62,54,98,66,36,29.65,29.40,11,3,23,0.21
2013-9-2,83,68,57,60,54,41,96,67,25,29.75,29.65,8,2,14,0.00
2013-9-3,92,71,52,64,57,51,99,66,30,29.73,29.63,7,1,12,0.01
2013-9-4,92,78,67,63,59,51,74,54,25,29.78,29.66,8,2,13,0.00
2013-9-5,86,76,68,68,65,60,96,71,45,29.83,29.70,11,2,16,0.09
2013-9-6,96,81,68,68,63,58,81,56,33,29.73,29.51,10,4,20,0.00
2013-9-7,89,80,71,71,67,63,93,66,45,29.57,29.48,9,3,16,0.02
2013-9-8,96,80,68,75,71,68,99,75,45,29.56,29.42,8,2,14,0.00
2013-9-9,100,86,76,70,57,42,75,41,15,29.47,29.39,14,7,23,0.00
2013-9-10,99,81,67,68,60,54,77,52,26,29.69,29.47,9,3,16,0.00
2013-9-11,88,76,68,75,66,60,99,74,41,29.75,29.67,6,1,11,0.26
2013-9-12,83,71,56,66,52,37,87,58,20,29.87,29.74,11,3,19,0.00
2013-9-13,82,65,50,56,47,39,92,57,22,29.87,29.70,8,1,11,0.00
2013-9-14,81,68,54,52,47,42,73,50,27,29.71,29.48,11,3,21,0.01
2013-9-15,71,66,61,60,55,50,83,66,49,29.88,29.46,13,6,21,0.00
2013-9-16,73,62,54,54,51,48,90,69,42,29.96,29.82,11,4,18,0.30
2013-9-17,71,63,57,68,61,54,99,93,85,29.83,29.50,9,4,17,0.20
2013-9-18,94,79,68,68,66,62,90,67,36,29.50,29.31,14,5,26,0.00
2013-9-19,82,72,58,68,59,46,86,65,42,29.64,29.33,12,5,23,0.24
2013-9-20,76,60,47,50,42,32,79,55,21,29.71,29.60,10,3,20,0.00
2013-9-21,81,61,41,51,43,37,91,57,22,29.66,29.48,9,2,15,0.00
2013-9-22,86,71,58,53,46,33,76,45,16,29.52,29.42,14,5,25,0.00
2013-9-23,81,68,56,49,46,40,74,48,25,29.47,29.35,17,6,29,0.31
2013-9-24,78,66,55,56,53,48,88,65,41,29.55,29.36,9,3,17,0.00
2013-9-25,84,67,50,59,53,49,98,66,32,29.55,29.37,12,3,21,0.00
2013-9-26,90,76,64,58,55,49,76,51,26,29.43,29.35,17,8,33,0.00
2013-9-27,94,79,68,60,55,44,76,47,19,29.45,29.37,15,7,33,0.20
2013-9-28,76,64,48,61,46,31,90,58,22,29.68,29.30,13,4,30,0.33
2013-9-29,82,64,50,41,35,19,70,39,10,29.68,29.48,14,5,25,0.00
2013-9-30,85,69,56,47,42,33,67,42,16,29.51,29.30,15,6,28,0.07
2013-10-1,85,69,55,50,40,19,72,43,10,29.60,29.37,11,4,21,0.00
2013-10-2,90,70,51,62,52,42,79,56,24,29.60,29.43,9,3,19,0.18
2013-10-3,83,68,60,64,60,56,99,76,39,29.51,29.33,14,3,22,0.77
2013-10-4,82,68,51,69,60,36,99,77,46,29.50,29.24,16,7,27,1.18
2013-10-5,55,47,40,37,32,27,82,56,35,29.57,29.41,17,8,29,0.01
2013-10-6,55,47,41,47,40,34,88,78,51,29.62,29.39,10,4,21,0.14
2013-10-7,80,60,41,40,31,14,78,42,10,29.70,29.58,10,3,17,0.11
2013-10-8,82,66,53,40,35,25,55,34,13,29.60,29.48,14,6,28,0.44
2013-10-9,81,67,57,46,43,38,59,43,22,29.61,29.53,14,5,22,0.44
2013-10-10,82,70,59,49,47,42,65,46,26,29.61,29.41,17,6,29,0.40
2013-10-11,82,67,52,56,44,18,70,49,10,29.52,29.23,16,7,32,0.24
2013-10-12,71,56,41,39,26,6,63,39,10,29.90,29.52,10,3,21,0.14
2013-10-13,74,53,34,42,27,13,83,46,10,30.04,29.89,8,2,14,0.00
2013-10-14,61,53,46,59,43,25,99,69,32,29.91,29.33,17,6,34,1.00
2013-10-15,57,48,45,51,38,34,79,68,56,29.68,29.38,16,7,28,0.00
2013-10-16,64,49,42,38,31,17,77,54,17,29.70,29.58,8,3,14,0.00
2013-10-17,64,48,36,37,32,26,73,55,29,29.68,29.50,10,3,22,0.00
2013-10-18,55,44,35,33,26,15,76,53,21,29.75,29.62,8,3,13,0.00
2013-10-19,68,47,34,32,26,8,73,51,10,29.62,29.43,17,5,25,0.00
2013-10-20,68,52,40,37,32,17,81,51,15,29.65,29.32,11,3,22,0.00
2013-10-21,57,43,32,34,28,24,77,58,28,29.73,29.56,10,2,18,0.00
2013-10-22,46,42,37,40,33,30,82,72,63,29.75,29.49,9,2,17,0.00
2013-10-23,44,38,32,37,32,26,85,78,68,29.83,29.68,6,2,11,0.04
2013-10-24,56,40,30,30,22,6,78,53,14,30.02,29.83,8,2,15,0.00
2013-10-25,62,46,31,24,21,18,63,40,18,30.01,29.65,16,7,26,0.00
2013-10-26,56,46,31,31,23,11,66,43,17,29.85,29.61,15,4,26,0.00
2013-10-27,75,49,30,33,22,10,67,42,10,29.76,29.43,14,4,23,0.00
2013-10-28,55,46,36,32,30,27,74,54,35,29.84,29.59,15,6,22,0.00
2013-10-29,50,45,41,50,41,32,99,85,62,29.84,29.58,6,3,13,0.15
2013-10-30,64,48,41,62,46,38,99,94,75,29.59,29.40,7,2,16,0.15
2013-10-31,61,45,33,43,35,30,96,72,32,29.40,29.13,7,2,17,0.01
2013-11-1,63,48,41,38,34,25,76,60,25,29.61,29.22,14,4,29,0.01
2013-11-2,65,48,36,34,28,12,73,50,13,29.80,29.61,8,3,17,0.00
2013-11-3,60,51,43,30,26,20,51,38,22,29.69,29.35,21,8,36,0.00
2013-11-4,61,49,32,39,31,22,79,52,22,29.78,29.40,12,4,20,0.00
2013-11-5,42,36,30,39,33,24,96,87,75,29.78,29.49,12,5,24,1.02
2013-11-6,47,36,31,32,29,25,92,74,48,29.89,29.66,10,3,18,0.00
2013-11-7,55,39,28,28,19,-2,80,51,10,30.01,29.87,9,2,18,0.00
2013-11-8,64,50,34,32,22,15,50,35,16,29.88,29.34,17,6,31,0.00
2013-11-9,64,50,37,30,24,16,57,40,16,29.98,29.52,12,5,21,0.00
2013-11-10,60,45,28,31,20,2,71,42,10,30.03,29.75,9,2,20,0.00
2013-11-11,46,31,16,35,17,3,77,58,38,30.40,29.70,16,8,29,0.00
2013-11-12,31,18,9,9,2,-4,69,51,27,30.49,30.14,9,2,15,0.00
2013-11-13,58,40,26,19,8,1,43,28,11,30.15,29.59,14,6,27,0.00
2013-11-14,64,45,36,29,22,18,56,41,19,29.59,29.50,11,4,17,0.00
2013-11-15,62,47,30,38,28,19,78,51,19,29.51,29.21,8,3,22,0.00
2013-11-16,65,54,38,48,36,25,79,55,23,29.21,28.92,21,6,31,0.00
2013-11-17,60,46,36,39,30,20,70,54,29,29.66,28.99,9,3,19,0.02
2013-11-18,64,42,30,28,20,3,71,47,10,29.87,29.67,10,2,21,0.00
2013-11-19,66,52,33,22,12,0,60,23,10,29.79,29.47,17,6,34,0.00
2013-11-20,61,49,35,32,23,13,73,39,20,29.58,29.39,14,5,24,0.00
2013-11-21,35,28,20,29,18,9,80,65,48,30.18,29.58,15,9,29,0.00
2013-11-22,38,23,12,13,2,-9,72,42,13,30.32,30.17,9,4,17,0.00
2013-11-23,26,16,8,9,-3,-16,64,44,15,30.49,30.25,11,4,22,0.00
2013-11-24,38,22,9,6,0,-11,59,39,18,30.35,29.80,11,4,24,0.00
2013-11-25,52,35,26,21,13,0,56,41,18,29.83,29.72,15,6,24,0.00
2013-11-26,32,27,16,17,5,-15,61,43,12,30.04,29.81,14,5,26,0.00
2013-11-27,37,24,8,10,0,-10,64,37,13,30.04,29.62,12,4,21,0.00
2013-11-28,40,27,15,14,7,-1,63,45,17,30.10,29.66,13,4,21,0.00
2013-11-29,50,31,14,19,12,4,69,47,21,30.09,29.73,11,3,21,0.00
2013-11-30,66,42,29,22,16,3,60,40,10,29.78,29.66,8,2,14,0.00
2013-12-1,52,35,23,22,17,11,70,51,19,29.79,29.48,4,1,7,0.00
2013-12-2,65,42,28,28,23,11,68,51,12,29.48,29.14,8,1,13,0.00
2013-12-3,45,36,31,28,26,22,75,65,49,29.32,29.13,13,5,21,0.00
2013-12-4,33,21,15,28,12,-1,86,69,48,29.69,29.27,11,6,28,0.00
2013-12-5,17,11,6,0,-10,-17,52,39,23,30.06,29.67,11,5,24,0.00
2013-12-6,16,4,-3,-14,-16,-23,54,40,15,30.33,30.05,10,3,17,0.00
2013-12-7,16,3,-6,-1,-13,-18,60,46,23,30.36,30.03,7,2,14,0.00
2013-12-8,20,13,7,7,3,-2,69,64,50,30.03,29.64,7,2,12,0.00
2013-12-9,16,6,-3,-2,-12,-18,65,43,25,29.94,29.66,15,6,25,0.00
2013-12-10,29,22,12,21,4,-6,74,45,25,29.87,29.64,17,6,24,0.00
2013-12-11,27,11,0,16,-9,-20,62,41,18,30.28,29.88,17,5,27,0.00
2013-12-12,38,22,10,13,4,-6,62,45,25,30.03,29.68,16,4,25,0.00
2013-12-13,39,24,16,20,12,7,71,60,37,29.74,29.52,13,4,17,0.00
2013-12-14,22,17,13,11,6,3,67,60,48,29.85,29.73,11,4,19,0.00
2013-12-15,31,20,14,11,7,3,69,56,33,29.79,29.58,7,2,11,0.00
2013-12-16,51,28,10,22,13,1,70,55,28,29.77,29.59,10,2,21,0.00
2013-12-17,46,34,25,22,9,-12,65,40,10,29.90,29.70,10,4,20,0.00
2013-12-18,55,38,26,21,14,6,66,39,14,29.70,29.33,17,5,27,0.00
2013-12-19,34,27,17,21,15,10,75,62,40,29.55,29.37,14,7,22,0.00
2013-12-20,17,15,12,10,6,4,74,67,63,29.62,29.51,13,2,21,0.00
2013-12-21,24,19,14,14,10,5,71,65,49,29.52,29.42,11,1,21,0.00
2013-12-22,24,16,5,12,0,-10,69,50,25,30.03,29.51,12,5,21,0.00
2013-12-23,16,4,-7,-10,-23,-36,52,31,10,30.22,30.02,8,3,16,0.00
2013-12-24,25,12,-6,15,-3,-23,68,49,38,30.15,29.70,11,4,24,0.00
2013-12-25,44,29,21,19,13,8,70,53,26,29.91,29.79,17,6,30,0.00
2013-12-26,51,35,24,15,9,-2,64,38,11,29.86,29.70,14,5,21,0.00
2013-12-27,66,42,24,16,8,-5,60,32,10,29.88,29.67,17,6,27,0.00
2013-12-28,64,41,12,19,10,-6,51,33,10,29.79,29.34,16,9,31,0.00
2013-12-29,16,7,0,-6,-26,-40,48,23,10,30.03,29.80,14,5,26,0.00
2013-12-30,34,16,2,14,-12,-29,56,30,12,29.91,29.65,13,5,24,0.00
2013-12-31,36,14,5,4,-3,-6,61,48,19,29.90,29.65,13,4,23,0.00
2014-1-1,10,6,1,-4,-8,-13,62,53,47,30.03,29.76,11,6,20,0.00
2014-1-2,15,2,-7,-11,-17,-26,57,43,14,30.09,29.98,8,2,11,0.00